Weather in Greenock

United Kingdom     55°56′45″N   4°45′37″W
В апреле 2022 года жителям России запретили посещать сайт meteo.paraplan.net по решению Генеральной прокуратуры. Аудитория сайта уменьшилась в 10 раз. Владельцы сайта не видят смысла в поддержке погодного сервера в таких условиях. Сайт будет закрыт в октябре.
temp.,
°C
wind,
m/s
gust,
m/s
humid.,
%
clouds,
%
prec.,
mm/h
press.,
hPa
HPBL,
m
3 october, mon
mon301:00+8wsw1197100 0.0 102410
04:00+8s1198100 0.0 102313
07:00+8se1199100 0.0 102233
10:00+10sse2690100 0.0 1021371
13:00+11s51194100 1.0 1019947
16:00+11s51395100 3.2 1016951
19:00+11s61595100 4.6 1013782
22:00+12s7159699 0.9 1011830
4 october, tue
tue401:00+13s71697100 3.8 10071047
04:00+13ssw71698100 5.8 1004930
07:00+13ssw81698100 18.9 10021107
10:00+14wsw3991100 6.3 1002857
13:00+10w2794100 6.9 1005504
16:00+10ssw1295100 2.4 1006247
19:00+10sw1197100 2.6 100683
22:00+10sse1299100 0.2 1004101
5 october, wed
wed501:00+9ese12100100 0.9 1001112
04:00+9ene12100100 4.8 995157
07:00+10ne2399100 16.4 986159
10:00+8wnw111793100 24.3 983941
13:00+7wnw91990100 28.2 9941407
16:00+9w8148578 1.2 9991634
19:00+8wsw91888100 2.1 10051480
22:00+8wsw8178642 0.3 10101386
6 october, thu
thu601:00+9sw91888100 0.4 10111565
04:00+10wsw8169035 1.4 10121208
07:00+9wsw6149029 1.7 10151003
10:00+11wsw713855 0.2 10171260
13:00+12wsw8148524 0.9 10171286
16:00+12wsw7138423 0.4 10161206
19:00+11sw51390100 0.8 10151041
22:00+12sw81692100 1.4 10121228
7 october, fri
fri701:00+11sw91690100 2.4 10111223
04:00+11sw91892100 3.0 10071488
07:00+10wsw61589100 11.6 10081315
10:00+10wsw71487100 0.7 10081327
13:00+10wsw7148741 2.4 10071458
16:00+9w7148740 1.8 10071429
19:00+8w7148831 2.5 10091102
22:00+8w7138724 0.1 10101059